VLG6LF LPPT-LEBL

Flight info

Callsign VLG6LF
Flight time 1h 30m
Altitude 34000
Route ORVED DCT UREDI DCT DIPOL DCT RBO DCT PINAR DCT SEGRE DCT BRITO DCT PISUS/N0436F300 DCT PONEN T600 CASPE
Aircraft A321/M-SDE3FGHIRWY/LB1

Departure

Time 2026-05-01 13:10
Airport Lisbon Humberto Delgado Airport (LPPT)

Arrival

Time 2026-05-01 14:40
Airport Josep Tarradellas Barcelona-El Prat Airport (LEBL)
Time Latitude Longitude Altitude Speed Heading
2026-05-01 12:26 38.76471 -9.13685 348 ft 0 kts 168°
2026-05-01 12:59 38.76492 -9.13691 358 ft 4 kts 168°
2026-05-01 12:59 38.76540 -9.13708 356 ft 4 kts 130°
2026-05-01 13:00 38.76539 -9.13767 358 ft 4 kts 66°
2026-05-01 13:00 38.76531 -9.13795 356 ft 1 kts 78°
2026-05-01 13:07 38.77946 -9.13463 361 ft 16 kts 22°
2026-05-01 13:07 38.78050 -9.13407 360 ft 16 kts 22°
2026-05-01 13:07 38.78157 -9.13350 358 ft 17 kts 22°
2026-05-01 13:08 38.78267 -9.13284 359 ft 18 kts 21°
2026-05-01 13:08 38.78383 -9.13232 359 ft 18 kts 18°
2026-05-01 13:08 38.78490 -9.13229 361 ft 14 kts 345°
2026-05-01 13:08 38.78553 -9.13323 360 ft 15 kts 295°
2026-05-01 13:09 38.78537 -9.13377 362 ft 8 kts 202°
2026-05-01 13:09 38.78308 -9.13499 365 ft 73 kts 202°
2026-05-01 13:09 38.77631 -9.13860 368 ft 139 kts 202°
2026-05-01 13:09 38.76604 -9.14418 664 ft 165 kts 204°
2026-05-01 13:10 38.75551 -9.14982 1488 ft 164 kts 205°
2026-05-01 13:10 38.74490 -9.15545 2250 ft 168 kts 204°
2026-05-01 13:10 38.73339 -9.16155 2597 ft 189 kts 203°
2026-05-01 13:10 38.72072 -9.16826 3014 ft 203 kts 203°
2026-05-01 13:11 38.70725 -9.17540 3464 ft 215 kts 202°
2026-05-01 13:11 38.69305 -9.18291 3868 ft 230 kts 202°
2026-05-01 13:11 38.67736 -9.19120 4176 ft 255 kts 202°
2026-05-01 13:11 38.66005 -9.19714 4889 ft 261 kts 180°
2026-05-01 13:12 38.64254 -9.19093 5596 ft 267 kts 147°
2026-05-01 13:12 38.63038 -9.17292 6381 ft 275 kts 115°
2026-05-01 13:12 38.62765 -9.14877 7143 ft 282 kts 83°
2026-05-01 13:12 38.63458 -9.12502 7811 ft 292 kts 60°
2026-05-01 13:13 38.64585 -9.10298 8431 ft 300 kts 58°
2026-05-01 13:13 38.65749 -9.08067 9211 ft 302 kts 58°
2026-05-01 13:13 38.66925 -9.05834 10037 ft 303 kts 58°
2026-05-01 13:13 38.68138 -9.03542 10358 ft 323 kts 58°
2026-05-01 13:14 38.69430 -9.01060 10543 ft 345 kts 59°
2026-05-01 13:14 38.70781 -8.98416 10829 ft 362 kts 59°
2026-05-01 13:14 38.71908 -8.96200 11292 ft 367 kts 59°
2026-05-01 13:14 38.73029 -8.94001 11788 ft 371 kts 59°
2026-05-01 13:15 38.74425 -8.91282 12397 ft 376 kts 59°
2026-05-01 13:15 38.75881 -8.88464 13039 ft 381 kts 59°
2026-05-01 13:15 38.77356 -8.85610 13673 ft 386 kts 59°
2026-05-01 13:15 38.78847 -8.82717 14259 ft 391 kts 59°
2026-05-01 13:16 38.80355 -8.79792 14844 ft 394 kts 58°
2026-05-01 13:16 38.81876 -8.76839 15458 ft 398 kts 58°
2026-05-01 13:16 38.83410 -8.73859 16068 ft 401 kts 58°
2026-05-01 13:17 38.88070 -8.64791 17859 ft 412 kts 58°
2026-05-01 13:17 38.89656 -8.61700 18443 ft 416 kts 58°
2026-05-01 13:18 38.92861 -8.55428 19452 ft 423 kts 58°
2026-05-01 13:18 38.94479 -8.52253 19954 ft 426 kts 58°
2026-05-01 13:18 38.96114 -8.49050 20484 ft 430 kts 57°
2026-05-01 13:18 38.97762 -8.45819 20984 ft 433 kts 57°
2026-05-01 13:19 38.99428 -8.42548 21491 ft 437 kts 57°
2026-05-01 13:19 39.01076 -8.39302 21978 ft 440 kts 57°
2026-05-01 13:19 39.04454 -8.32655 22932 ft 447 kts 57°
2026-05-01 13:20 39.06173 -8.29277 23388 ft 450 kts 57°
2026-05-01 13:20 39.07892 -8.25895 23807 ft 454 kts 56°
2026-05-01 13:20 39.09633 -8.22461 24173 ft 457 kts 56°
2026-05-01 13:21 39.13127 -8.15538 24883 ft 464 kts 56°
2026-05-01 13:21 39.14893 -8.12028 25224 ft 468 kts 56°
2026-05-01 13:21 39.16069 -8.09693 25453 ft 470 kts 56°
2026-05-01 13:21 39.17864 -8.06128 25794 ft 473 kts 56°
2026-05-01 13:22 39.19666 -8.02548 26132 ft 477 kts 56°
2026-05-01 13:22 39.21479 -7.98942 26473 ft 480 kts 55°
2026-05-01 13:22 39.23279 -7.95357 26789 ft 483 kts 55°
2026-05-01 13:22 39.25115 -7.91700 27124 ft 486 kts 55°
2026-05-01 13:23 39.26964 -7.88018 27459 ft 489 kts 55°
2026-05-01 13:23 39.28825 -7.84313 27801 ft 492 kts 55°
2026-05-01 13:23 39.30685 -7.80592 28104 ft 495 kts 55°
2026-05-01 13:23 39.32566 -7.76821 28413 ft 498 kts 55°
2026-05-01 13:24 39.34445 -7.73051 28733 ft 501 kts 54°
2026-05-01 13:24 39.36345 -7.69232 29044 ft 504 kts 54°
2026-05-01 13:24 39.38218 -7.65395 29347 ft 508 kts 58°
2026-05-01 13:25 39.41433 -7.57171 29956 ft 514 kts 61°
2026-05-01 13:25 39.43012 -7.53065 30254 ft 517 kts 61°
2026-05-01 13:25 39.44646 -7.48830 30529 ft 519 kts 61°
2026-05-01 13:25 39.46239 -7.44697 30889 ft 519 kts 61°
2026-05-01 13:26 39.47842 -7.40529 31280 ft 518 kts 61°
2026-05-01 13:26 39.49444 -7.36350 31666 ft 517 kts 61°
2026-05-01 13:26 39.51041 -7.32176 32055 ft 516 kts 61°
2026-05-01 13:26 39.52632 -7.28002 32427 ft 516 kts 61°
2026-05-01 13:27 39.54220 -7.23832 32800 ft 515 kts 61°
2026-05-01 13:27 39.55806 -7.19666 33171 ft 514 kts 61°
2026-05-01 13:27 39.58973 -7.11346 33915 ft 513 kts 61°
2026-05-01 13:28 39.62104 -7.03094 34131 ft 507 kts 61°
2026-05-01 13:28 39.63656 -6.98987 34136 ft 505 kts 61°
2026-05-01 13:29 39.69815 -6.82629 34128 ft 502 kts 61°
2026-05-01 13:31 39.78952 -6.58223 34154 ft 501 kts 61°
2026-05-01 13:32 39.86545 -6.37797 34148 ft 500 kts 62°
2026-05-01 13:33 39.93420 -6.16971 34162 ft 499 kts 65°
2026-05-01 13:34 39.98898 -6.00377 34161 ft 498 kts 64°
2026-05-01 13:35 40.03016 -5.87922 34158 ft 497 kts 64°
2026-05-01 13:36 40.07081 -5.75510 34175 ft 495 kts 64°
2026-05-01 13:36 40.11130 -5.63078 34182 ft 494 kts 65°
2026-05-01 13:37 40.13810 -5.54821 34182 ft 493 kts 65°
2026-05-01 13:37 40.16489 -5.46556 34171 ft 491 kts 65°
2026-05-01 13:38 40.20457 -5.34278 34178 ft 490 kts 65°
2026-05-01 13:39 40.23094 -5.26050 34178 ft 489 kts 65°
2026-05-01 13:39 40.25715 -5.17852 34169 ft 488 kts 66°
2026-05-01 13:40 40.28337 -5.09658 34176 ft 486 kts 65°
2026-05-01 13:40 40.30950 -5.01474 34179 ft 485 kts 66°
2026-05-01 13:41 40.33534 -4.93352 34179 ft 484 kts 66°
2026-05-01 13:41 40.36115 -4.85182 34180 ft 484 kts 66°
2026-05-01 13:42 40.38691 -4.77030 34182 ft 482 kts 66°
2026-05-01 13:42 40.41255 -4.68895 34175 ft 481 kts 66°
2026-05-01 13:43 40.43801 -4.60774 34178 ft 480 kts 66°
2026-05-01 13:43 40.46321 -4.52706 34172 ft 478 kts 67°
2026-05-01 13:44 40.48845 -4.44616 34175 ft 477 kts 67°
2026-05-01 13:44 40.51367 -4.36530 34172 ft 476 kts 67°
2026-05-01 13:45 40.53861 -4.28479 34181 ft 475 kts 67°
2026-05-01 13:45 40.56341 -4.20469 34175 ft 474 kts 68°
2026-05-01 13:46 40.58817 -4.12445 34182 ft 473 kts 68°
2026-05-01 13:46 40.61277 -4.04436 34200 ft 472 kts 68°
2026-05-01 13:47 40.63733 -3.96405 34200 ft 472 kts 68°
2026-05-01 13:47 40.66174 -3.88435 34212 ft 471 kts 68°
2026-05-01 13:48 40.68617 -3.80411 34215 ft 471 kts 68°
2026-05-01 13:48 40.71045 -3.72401 34211 ft 470 kts 68°
2026-05-01 13:49 40.73479 -3.64369 34209 ft 470 kts 68°
2026-05-01 13:49 40.75901 -3.56355 34200 ft 469 kts 68°
2026-05-01 13:50 40.78315 -3.48345 34186 ft 469 kts 68°
2026-05-01 13:50 40.80704 -3.40392 34176 ft 468 kts 68°
2026-05-01 13:51 40.83100 -3.32377 34168 ft 467 kts 68°
2026-05-01 13:51 40.85425 -3.24394 34164 ft 467 kts 73°
2026-05-01 13:52 40.87101 -3.16101 34161 ft 466 kts 76°
2026-05-01 13:52 40.88459 -3.09185 34171 ft 466 kts 76°
2026-05-01 13:53 40.90085 -3.00875 34164 ft 466 kts 76°
2026-05-01 13:53 40.92522 -2.88413 34165 ft 466 kts 76°
2026-05-01 13:54 40.94140 -2.80119 34169 ft 466 kts 76°
2026-05-01 13:54 40.95755 -2.71809 34173 ft 465 kts 76°
2026-05-01 13:55 40.97353 -2.63509 34170 ft 465 kts 76°
2026-05-01 13:55 40.98930 -2.55246 34171 ft 465 kts 76°
2026-05-01 13:56 41.00522 -2.46913 34175 ft 465 kts 76°
2026-05-01 13:56 41.02107 -2.38594 34186 ft 465 kts 75°
2026-05-01 13:57 41.03677 -2.30329 34193 ft 465 kts 75°
2026-05-01 13:57 41.05244 -2.22011 34187 ft 464 kts 75°
2026-05-01 13:58 41.06809 -2.13701 34193 ft 464 kts 75°
2026-05-01 13:58 41.08366 -2.05393 34195 ft 463 kts 75°
2026-05-01 13:59 41.09917 -1.97084 34189 ft 463 kts 75°
2026-05-01 13:59 41.11459 -1.88787 34187 ft 463 kts 75°
2026-05-01 14:00 41.12987 -1.80496 34190 ft 463 kts 75°
2026-05-01 14:00 41.14513 -1.72181 34185 ft 464 kts 75°
2026-05-01 14:01 41.16037 -1.63837 34184 ft 464 kts 75°
2026-05-01 14:01 41.17559 -1.55515 34183 ft 464 kts 75°
2026-05-01 14:02 41.19072 -1.47172 34186 ft 465 kts 75°
2026-05-01 14:02 41.20580 -1.38824 34191 ft 465 kts 75°
2026-05-01 14:03 41.21636 -1.32968 34190 ft 465 kts 75°
2026-05-01 14:03 41.23122 -1.24658 34189 ft 465 kts 76°
2026-05-01 14:04 41.24616 -1.16289 34195 ft 464 kts 76°
2026-05-01 14:04 41.26105 -1.07920 34196 ft 464 kts 76°
2026-05-01 14:05 41.27583 -0.99570 34192 ft 463 kts 77°
2026-05-01 14:05 41.28317 -0.95397 34049 ft 470 kts 77°
2026-05-01 14:05 41.29063 -0.91147 33775 ft 472 kts 77°
2026-05-01 14:06 41.29808 -0.86896 33502 ft 471 kts 77°
2026-05-01 14:06 41.30549 -0.82656 33235 ft 469 kts 77°
2026-05-01 14:06 41.31287 -0.78429 32969 ft 468 kts 78°
2026-05-01 14:06 41.32023 -0.74215 32706 ft 465 kts 78°
2026-05-01 14:07 41.32757 -0.70016 32439 ft 463 kts 78°
2026-05-01 14:07 41.33484 -0.65847 32194 ft 461 kts 78°
2026-05-01 14:07 41.34205 -0.61687 31936 ft 460 kts 78°
2026-05-01 14:08 41.35041 -0.53325 31424 ft 453 kts 93°
2026-05-01 14:08 41.34791 -0.49202 31179 ft 450 kts 101°
2026-05-01 14:08 41.34322 -0.45088 30934 ft 449 kts 101°
2026-05-01 14:08 41.33856 -0.40990 30684 ft 447 kts 101°
2026-05-01 14:09 41.33393 -0.36902 30450 ft 446 kts 101°
2026-05-01 14:09 41.32931 -0.32823 30226 ft 445 kts 101°
2026-05-01 14:09 41.32472 -0.28766 30150 ft 443 kts 101°
2026-05-01 14:09 41.32011 -0.24690 29950 ft 444 kts 101°
2026-05-01 14:10 41.31553 -0.20632 29430 ft 442 kts 101°
2026-05-01 14:10 41.31094 -0.16596 28879 ft 439 kts 101°
2026-05-01 14:10 41.30638 -0.12604 28345 ft 436 kts 101°
2026-05-01 14:10 41.30182 -0.08636 27824 ft 432 kts 101°
2026-05-01 14:11 41.29727 -0.04699 27298 ft 429 kts 101°
2026-05-01 14:11 41.31123 0.02411 21241 ft 493 kts 14°
2026-05-01 14:11 41.34793 0.02449 17990 ft 550 kts 354°
2026-05-01 14:12 41.38412 0.02210 19213 ft 469 kts 352°
2026-05-01 14:12 41.41229 0.01089 21568 ft 381 kts 315°
2026-05-01 14:12 41.42441 -0.01715 22851 ft 339 kts 285°
2026-05-01 14:12 41.42531 -0.04911 20155 ft 379 kts 257°
2026-05-01 14:13 41.42007 -0.08614 17164 ft 431 kts 253°
2026-05-01 14:13 41.41165 -0.11108 15233 ft 463 kts 235°
2026-05-01 14:13 41.38326 -0.15374 14781 ft 434 kts 223°
2026-05-01 14:13 41.36191 -0.17954 14810 ft 405 kts 220°
2026-05-01 14:14 41.33530 -0.19083 11857 ft 447 kts 168°
2026-05-01 14:14 41.30742 -0.17598 12393 ft 402 kts 157°
2026-05-01 14:14 41.28374 -0.15901 12204 ft 378 kts 148°
2026-05-01 14:14 41.27510 -0.12673 9953 ft 420 kts 81°
2026-05-01 14:15 41.28112 -0.08990 10146 ft 390 kts 81°
2026-05-01 14:15 41.29285 -0.06279 11932 ft 293 kts 55°
2026-05-01 14:15 41.30747 -0.04589 12003 ft 267 kts
2026-05-01 14:15 41.32626 -0.04583 10435 ft 317 kts 321°
2026-05-01 14:16 41.33663 -0.07424 8022 ft 376 kts 261°
2026-05-01 14:16 41.32259 -0.10324 5492 ft 414 kts 213°
2026-05-01 14:16 41.29705 -0.12069 5213 ft 396 kts 196°
2026-05-01 14:16 41.27104 -0.12173 5339 ft 365 kts 162°
2026-05-01 14:17 41.24914 -0.10434 3511 ft 385 kts 147°
2026-05-01 14:17 41.22799 -0.08300 3296 ft 370 kts 131°
2026-05-01 14:17 41.21800 -0.05304 2633 ft 361 kts 92°
2026-05-01 14:17 41.21834 -0.03983 1871 ft 374 kts 85°
2026-05-01 14:18 41.22121 -0.01359 1987 ft 359 kts 81°
2026-05-01 14:18 41.22472 0.01683 3120 ft 308 kts 81°
2026-05-01 14:18 41.22681 0.03501 3597 ft 292 kts 81°
2026-05-01 14:19 41.23341 0.06834 4527 ft 272 kts 72°
2026-05-01 14:19 41.23679 0.09296 4868 ft 272 kts 83°
2026-05-01 14:19 41.23882 0.11797 5186 ft 272 kts 84°
2026-05-01 14:19 41.24081 0.14318 5758 ft 275 kts 84°
2026-05-01 14:20 41.24280 0.16858 6637 ft 277 kts 84°
2026-05-01 14:20 41.24664 0.21799 7056 ft 273 kts 84°
2026-05-01 14:20 41.24862 0.24343 7861 ft 280 kts 84°
2026-05-01 14:21 41.25063 0.26945 8651 ft 285 kts 84°
2026-05-01 14:21 41.25266 0.29585 9440 ft 288 kts 84°
2026-05-01 14:21 41.25477 0.32303 9867 ft 307 kts 84°
2026-05-01 14:22 41.25950 0.38470 10006 ft 364 kts 84°
2026-05-01 14:22 41.26215 0.41939 10001 ft 390 kts 84°
2026-05-01 14:22 41.26496 0.45633 10005 ft 411 kts 84°
2026-05-01 14:22 41.26683 0.48109 9999 ft 398 kts 84°
2026-05-01 14:23 41.26951 0.51660 10005 ft 374 kts 84°
2026-05-01 14:23 41.27206 0.55038 10012 ft 352 kts 84°
2026-05-01 14:23 41.27445 0.58190 10012 ft 333 kts 84°
2026-05-01 14:23 41.27668 0.61129 10007 ft 315 kts 84°
2026-05-01 14:24 41.27881 0.63991 10014 ft 299 kts 84°
2026-05-01 14:24 41.28082 0.66711 10016 ft 293 kts 84°
2026-05-01 14:24 41.28277 0.69374 10006 ft 293 kts 84°
2026-05-01 14:24 41.28474 0.72073 10010 ft 293 kts 84°
2026-05-01 14:25 41.28670 0.74774 10011 ft 293 kts 84°
2026-05-01 14:25 41.28870 0.77469 10005 ft 293 kts 84°
2026-05-01 14:25 41.29072 0.80168 10008 ft 294 kts 84°
2026-05-01 14:25 41.29271 0.82873 10006 ft 294 kts 84°
2026-05-01 14:26 41.29467 0.85587 10011 ft 297 kts 84°
2026-05-01 14:26 41.29884 0.91408 10009 ft 318 kts 84°
2026-05-01 14:26 41.30093 0.94329 10003 ft 317 kts 84°
2026-05-01 14:27 41.30302 0.97245 10015 ft 318 kts 84°
2026-05-01 14:27 41.30514 1.00215 10012 ft 318 kts 84°
2026-05-01 14:27 41.30723 1.03138 10006 ft 318 kts 84°
2026-05-01 14:28 41.31136 1.08984 10008 ft 317 kts 85°
2026-05-01 14:28 41.31336 1.11858 10013 ft 316 kts 84°
2026-05-01 14:28 41.31543 1.14811 10008 ft 316 kts 84°
2026-05-01 14:28 41.31748 1.17719 10008 ft 316 kts 84°
2026-05-01 14:29 41.31953 1.20630 10010 ft 315 kts 84°
2026-05-01 14:29 41.32155 1.23536 10006 ft 316 kts 84°
2026-05-01 14:30 41.32753 1.32249 10005 ft 315 kts 84°
2026-05-01 14:30 41.32955 1.35155 10009 ft 315 kts 84°
2026-05-01 14:30 41.33155 1.38058 10005 ft 315 kts 85°
2026-05-01 14:31 41.33549 1.43882 10006 ft 316 kts 85°
2026-05-01 14:31 41.33745 1.46791 10005 ft 316 kts 85°
2026-05-01 14:31 41.33936 1.49710 10006 ft 316 kts 85°
2026-05-01 14:31 41.34127 1.52623 9882 ft 317 kts 85°
2026-05-01 14:32 41.34262 1.55553 9388 ft 317 kts 91°
2026-05-01 14:32 41.34218 1.58504 8879 ft 318 kts 91°
2026-05-01 14:32 41.34176 1.61443 8380 ft 319 kts 91°
2026-05-01 14:32 41.34133 1.64359 7884 ft 319 kts 91°
2026-05-01 14:33 41.34091 1.67347 7379 ft 318 kts 91°
2026-05-01 14:33 41.33754 1.70203 6877 ft 316 kts 112°
2026-05-01 14:33 41.32542 1.72520 6358 ft 298 kts 140°
2026-05-01 14:33 41.30805 1.73869 5877 ft 281 kts 156°
2026-05-01 14:34 41.29065 1.74906 5406 ft 267 kts 156°
2026-05-01 14:34 41.27405 1.75897 4963 ft 256 kts 156°
2026-05-01 14:34 41.25887 1.77025 4512 ft 246 kts 142°
2026-05-01 14:34 41.24555 1.78398 4062 ft 239 kts 142°
2026-05-01 14:35 41.23270 1.79716 3713 ft 227 kts 142°
2026-05-01 14:35 41.22127 1.81062 3363 ft 214 kts 126°
2026-05-01 14:35 41.21583 1.82831 3044 ft 205 kts 97°
2026-05-01 14:35 41.21728 1.84625 2792 ft 194 kts 70°
2026-05-01 14:36 41.22276 1.86250 2772 ft 191 kts 65°
2026-05-01 14:36 41.22800 1.87769 2758 ft 172 kts 65°
2026-05-01 14:36 41.23293 1.89199 2763 ft 170 kts 65°
2026-05-01 14:36 41.23792 1.90634 2747 ft 172 kts 64°
2026-05-01 14:37 41.24306 1.92080 2602 ft 175 kts 64°
2026-05-01 14:37 41.24816 1.93544 2396 ft 174 kts 65°
2026-05-01 14:37 41.25309 1.94999 2114 ft 172 kts 66°
2026-05-01 14:37 41.25776 1.96409 1817 ft 166 kts 66°
2026-05-01 14:38 41.26234 1.97777 1587 ft 154 kts 65°
2026-05-01 14:38 41.26664 1.99033 1457 ft 153 kts 64°
2026-05-01 14:38 41.27125 2.00336 1224 ft 157 kts 64°
2026-05-01 14:38 41.27578 2.01609 940 ft 149 kts 64°
2026-05-01 14:39 41.28005 2.02841 764 ft 147 kts 65°
2026-05-01 14:39 41.28424 2.04074 565 ft 147 kts 65°
2026-05-01 14:39 41.28840 2.05311 332 ft 145 kts 65°
2026-05-01 14:39 41.29240 2.06494 168 ft 142 kts 65°
2026-05-01 14:40 41.29652 2.07686 34 ft 141 kts 65°
2026-05-01 14:40 41.30008 2.08717 23 ft 99 kts 65°
2026-05-01 14:40 41.30226 2.09365 18 ft 62 kts 65°
2026-05-01 14:40 41.30353 2.09744 18 ft 13 kts 67°
2026-05-01 14:41 41.30313 2.09824 19 ft 13 kts 153°
2026-05-01 14:41 41.30228 2.09864 16 ft 13 kts 191°
2026-05-01 14:41 41.30171 2.09752 16 ft 20 kts 245°
2026-05-01 14:41 41.30106 2.09564 17 ft 24 kts 245°
2026-05-01 14:42 41.30023 2.09320 17 ft 32 kts 245°
2026-05-01 14:42 41.29931 2.09053 19 ft 32 kts 245°
2026-05-01 14:42 41.29839 2.08779 19 ft 33 kts 246°
2026-05-01 14:42 41.29742 2.08490 17 ft 35 kts 245°
2026-05-01 14:43 41.29640 2.08196 17 ft 34 kts 245°
2026-05-01 14:43 41.29549 2.07932 17 ft 29 kts 245°
2026-05-01 14:43 41.29464 2.07685 17 ft 30 kts 245°
2026-05-01 14:43 41.29402 2.07541 17 ft 13 kts 205°
2026-05-01 14:44 41.29312 2.07572 16 ft 14 kts 154°
2026-05-01 14:44 41.29160 2.07703 19 ft 11 kts 89°
2026-05-01 14:44 41.29179 2.07794 19 ft 8 kts 103°
2026-05-01 14:45 41.29130 2.07837 21 ft 6 kts 155°
2026-05-01 14:45 41.29116 2.07845 19 ft 0 kts 156°